Location: Gorze? G�rny
(49.8500°N, 19.5000°E)
Time: 05:16:39
(UTC+00:00)

Cosmos 2112 Rocket - Pass Details

Date: 13 May 2021
Orbit: 755 x 787 km, 74.1° (Epoch: 20 June)

Event Time Altitude Azimuth Distance (km) Brightness Sun altitude
Rises 20:26:54 0° 336° (NNW) 3,288 9.1 -15.6°
Reaches altitude 10° 20:29:18 10° 337° (NNW) 2,358 7.9 -15.8°
Maximum altitude 20:34:41 87° 67° (ENE) 796 4.0 -16.3°
Enters shadow 20:37:40 27° 156° (SSE) 1,462 4.8 -16.5°
